Wind_Speed
13 14 12 15 12 11 9 7 9 7 7 7 3 2 1 1 0 3 14 17 17 13 14 14 14 13 12 11 10 9 10 10 10 10 10 9 10 10 10 11 11 12 12 13 13 14 14 14 14
15 15 15 17 16 13 8 6 8 8 9 9 7 3 1 1 4 3 13 18 18 13 12 12 12 11 10 8 9 8 8 8 8 8 8 8 7 9 9 10 9 11 11 11 12 13 14 14 13
13 10 10 13 15 13 11 13 11 9 8 8 7 4 2 3 7 14 14 17 18 14 12 11 10 10 8 7 7 6 6 7 7 7 7 7 6 6 7 8 8 9 10 10 9 11 11 12 11
11 12 15 13 16 15 14 14 12 12 7 5 5 5 8 15 16 15 16 16 17 13 12 10 10 9 8 7 5 5 4 5 5 5 6 7 7 6 6 6 7 8 8 9 8 8 8 10 10
10 12 15 15 13 12 12 13 12 10 8 3 3 6 13 18 17 16 15 16 16 13 11 10 9 8 7 5 3 3 2 3 3 3 4 5 6 6 6 6 6 7 7 8 9 8 7 7 7
7 10 9 11 11 9 10 8 9 10 5 4 5 4 13 19 19 18 17 16 16 13 11 10 9 7 5 4 2 1 1 1 1 1 1 2 4 5 5 5 5 5 6 7 9 9 9 8 7
7 6 6 6 7 6 6 10 8 8 8 5 5 2 12 19 21 19 18 16 15 14 11 10 8 7 5 3 2 1 1 1 1 1 2 2 2 3 4 4 4 4 5 6 7 8 9 10 10
3 3 7 6 1 4 4 7 7 7 6 8 4 3 7 16 20 20 17 15 15 13 11 10 8 7 6 4 2 2 2 2 2 4 3 4 5 4 4 4 4 4 4 5 6 7 7 8 10
5 3 5 7 3 4 10 11 16 11 4 3 3 6 6 15 17 17 15 14 12 11 10 8 7 6 5 3 2 2 2 2 3 4 5 7 7 5 5 6 5 5 5 4 5 5 6 7 8
6 7 6 6 3 5 9 13 16 15 10 4 9 11 14 19 20 16 12 10 10 9 8 7 5 5 4 2 1 1 1 2 3 3 4 3 8 5 5 7 7 5 5 5 5 5 5 5 6
5 4 3 6 2 5 11 12 15 15 13 8 8 16 20 19 17 15 13 11 10 7 6 7 6 4 4 3 1 1 1 3 7 8 3 8 6 6 7 5 6 5 7 7 7 6 5 5 5
5 4 1 4 7 8 12 14 13 16 16 15 15 16 16 17 14 15 14 12 9 6 6 7 7 5 3 2 0 0 1 2 6 6 9 9 8 5 4 3 4 2 3 5 6 9 6 5 4
5 3 2 5 5 6 12 13 11 14 17 18 19 20 17 17 12 12 12 10 8 5 4 7 9 7 4 3 1 2 2 2 2 4 4 4 6 4 4 4 5 3 3 1 1 6 6 6 4
2 2 3 7 4 3 6 9 8 9 13 17 18 17 16 12 10 10 10 7 7 4 1 5 8 7 5 1 2 2 3 0 3 3 7 6 8 4 5 4 6 6 4 4 3 3 5 5 5
3 3 5 7 4 3 4 4 5 5 8 11 15 15 13 12 10 9 8 7 5 4 2 4 9 8 4 2 1 2 3 1 1 2 2 3 4 3 3 4 4 2 3 5 2 1 3 2 3
2 4 7 8 6 6 3 4 0 1 4 5 5 9 10 9 7 6 6 4 3 4 1 3 8 7 4 1 1 1 2 2 3 4 5 4 2 4 6 4 2 3 2 1 1 2 1 2 4
6 2 3 5 12 9 8 7 6 6 2 2 4 4 3 3 4 4 5 5 3 3 5 4 8 6 4 2 1 1 2 2 4 5 7 7 5 5 6 3 3 2 3 2 3 2 4 4 4
4 4 6 5 14 13 11 10 7 8 3 2 1 3 3 7 4 3 6 9 8 4 3 4 7 6 4 2 0 1 2 2 3 4 7 7 6 5 6 6 5 7 6 5 4 5 6 6 6
6 8 8 6 11 14 15 12 8 7 3 6 6 8 6 6 2 6 6 8 9 8 5 4 2 4 4 3 1 1 2 1 1 1 4 8 6 7 5 5 6 7 9 9 9 9 8 8 7
5 13 6 7 10 10 15 13 10 9 6 8 10 10 11 8 3 7 6 7 8 10 11 8 4 6 6 5 5 3 2 2 2 2 3 4 3 7 7 6 6 8 9 11 11 11 11 11 10
7 9 6 5 7 11 12 14 14 13 10 10 11 12 11 10 4 9 7 8 9 9 7 6 2 3 3 3 4 6 7 7 8 9 8 8 8 9 10 9 10 10 11 11 11 12 13 13 14
4 10 4 5 5 5 11 7 17 15 11 8 8 8 8 12 8 9 12 10 8 10 9 5 1 6 2 2 4 6 7 8 10 11 11 11 12 11 12 11 12 13 14 13 13 15 14 15 16
4 8 3 5 10 7 9 5 11 14 13 10 9 5 4 6 5 9 18 13 10 9 8 3 5 9 6 3 5 5 10 12 12 13 13 13 14 14 14 14 16 15 15 16 16 17 17 18 18
8 2 2 6 9 6 6 8 13 12 8 12 9 4 5 4 5 6 13 15 14 12 11 8 6 9 9 9 11 13 10 7 7 8 11 13 15 15 17 17 18 18 17 17 18 17 17 20 18
5 9 4 3 4 4 7 6 16 13 8 14 12 6 3 5 5 8 8 15 12 9 7 7 10 14 14 12 8 7 6 9 5 6 8 11 15 17 16 17 16 18 19 19 22 22 21 21 21
5 8 6 5 4 2 6 7 9 11 10 13 14 6 6 8 10 5 7 11 12 7 5 6 5 7 14 15 14 13 14 14 16 19 15 13 16 15 19 20 18 21 23 22 20 22 23 25 24
11 10 12 8 6 4 5 12 17 12 10 12 12 7 6 10 11 7 5 7 6 7 7 7 9 9 9 15 16 16 19 20 21 21 22 22 29 25 25 24 22 25 27 28 23 24 23 25 28
17 15 5 7 4 5 5 9 15 11 7 13 14 10 7 5 5 4 3 3 6 7 10 13 14 14 13 15 19 19 21 23 25 25 27 22 22 23 21 22 26 27 29 27 27 30 27 27 29
9 14 9 6 3 2 3 7 14 9 3 4 16 12 9 6 6 6 6 3 1 2 4 6 8 9 10 12 14 15 16 19 21 21 22 22 23 23 24 23 22 23 29 33 32 31 32 31 31
11 12 14 9 5 7 4 10 8 7 3 11 17 14 13 10 8 9 7 4 3 5 9 13 12 11 12 13 15 16 16 17 19 21 22 22 22 23 24 26 26 26 26 27 30 33 33 36 36
Wind_Direction
76 69 63 71 66 63 62 74 58 65 58 54 125 37 263 280 344 117 156 144 140 142 139 135 128 119 115 107 101 95 86 76 73 75 82 92 93 96 99 102 105 104 108 112 115 115 113 107 105
89 84 84 82 72 68 60 63 51 72 66 58 75 39 80 224 182 143 155 144 139 144 139 134 127 120 116 108 99 88 82 77 73 68 73 82 102 108 111 110 111 113 116 116 113 111 113 116 116
108 95 73 67 64 64 63 59 52 48 54 69 72 73 125 111 140 143 151 145 138 145 140 133 127 121 116 108 103 91 80 79 76 72 73 77 91 112 115 123 121 120 123 123 122 121 122 121 117
90 93 77 73 69 73 77 66 62 53 72 66 39 61 112 119 116 132 141 141 138 145 140 135 129 124 119 111 108 99 84 77 78 76 84 84 90 95 116 126 139 142 136 134 134 133 134 132 134
93 95 82 80 78 78 79 71 58 49 54 79 56 79 126 116 122 133 136 137 138 143 142 141 137 130 125 121 117 101 89 77 71 85 89 96 98 97 112 129 146 155 159 153 152 152 154 152 151
86 99 90 78 79 80 83 75 51 41 50 59 61 45 141 133 134 139 139 138 140 144 146 145 144 137 131 130 129 118 127 113 109 113 106 110 110 110 114 129 147 160 166 173 172 178 174 175 178
110 88 70 65 81 88 82 71 49 30 31 97 106 66 150 143 141 146 143 144 144 145 148 146 147 146 142 147 166 185 249 273 252 218 208 190 158 151 147 149 154 167 174 174 178 188 194 194 196
105 107 57 37 46 84 82 54 53 30 22 112 142 107 143 151 146 147 149 148 148 147 147 146 152 152 154 160 188 228 257 277 298 280 263 229 203 190 176 182 176 179 182 188 197 192 198 205 211
115 97 72 46 63 96 78 56 45 34 31 71 152 142 145 142 145 148 148 150 150 146 146 148 150 155 158 165 197 252 313 291 278 292 295 281 207 206 198 196 196 196 205 206 206 205 202 202 208
119 98 78 44 55 77 83 57 47 36 48 66 155 157 150 121 116 118 132 140 140 135 137 147 154 158 151 165 172 311 318 287 299 300 316 93 166 172 197 191 192 205 206 226 230 226 215 208 209
125 140 117 69 101 75 70 64 50 53 54 68 142 150 148 133 113 108 114 124 133 131 132 142 156 155 146 156 187 284 333 353 321 320 240 145 136 130 133 164 194 217 228 236 237 229 229 223 216
128 149 172 131 80 99 80 62 58 62 67 75 110 129 141 143 114 104 95 97 109 147 171 167 164 168 152 142 168 18 140 111 27 34 116 131 127 131 123 161 164 161 201 235 240 227 231 240 232
143 166 166 141 94 114 86 72 60 68 70 81 108 115 131 133 127 114 104 91 79 87 118 176 170 173 176 152 189 154 178 147 55 348 56 152 131 126 113 98 139 125 101 59 282 207 221 243 255
183 130 136 160 120 103 67 73 60 60 72 94 104 117 122 120 110 103 93 83 60 57 87 184 184 179 174 218 221 189 182 243 308 306 2 138 131 113 118 113 119 104 84 73 89 171 226 233 235
154 117 162 174 182 305 179 30 101 61 69 97 113 122 126 122 108 102 100 85 60 30 342 207 205 193 188 291 239 159 127 176 252 271 7 107 148 79 31 9 147 115 119 68 75 113 236 220 237
117 170 174 203 210 254 227 305 49 57 56 82 109 111 113 118 123 127 123 114 60 24 282 216 181 184 170 235 176 150 147 185 243 252 226 207 200 286 306 333 39 81 22 330 39 117 63 234 251
109 129 242 234 219 255 258 302 329 345 333 22 83 99 122 117 110 134 151 140 120 65 64 128 147 158 162 165 209 273 271 260 251 244 243 249 257 277 287 300 308 336 303 290 255 331 306 314 261
51 9 323 248 240 237 258 272 313 335 314 265 174 195 189 2 230 230 194 165 171 142 86 114 143 143 159 168 143 305 290 271 237 236 231 235 247 270 280 288 259 276 276 262 263 301 288 285 288
357 333 298 246 240 233 256 268 296 312 267 261 252 242 223 217 195 204 187 163 163 174 148 109 133 165 168 161 212 236 254 252 199 255 250 245 235 290 278 299 289 263 265 258 266 281 267 283 275
331 319 308 245 235 233 249 258 278 286 240 234 262 267 255 235 155 194 181 158 153 160 170 157 188 175 177 173 189 212 235 258 304 331 321 306 267 259 263 278 294 283 269 268 268 265 271 277 279
319 357 305 268 234 227 245 266 278 281 255 238 251 276 276 220 213 166 176 185 191 178 181 212 218 227 245 243 257 265 262 258 250 246 239 245 245 241 258 268 274 270 262 259 259 261 260 259 264
324 2 295 268 230 212 229 279 294 280 248 235 254 285 259 243 251 166 156 147 153 155 158 97 127 290 293 271 314 308 286 275 272 273 265 255 250 254 263 267 272 274 267 266 266 268 266 263 263
292 334 322 196 207 221 233 258 287 304 258 231 233 258 292 274 242 172 177 185 182 195 206 309 66 224 217 271 286 282 286 281 280 289 296 283 273 264 263 263 264 268 268 269 276 276 275 271 270
302 288 136 167 195 258 239 218 287 301 276 202 206 230 228 276 240 211 191 198 207 219 241 248 259 246 260 226 346 229 252 274 274 285 296 286 277 269 269 266 267 271 267 271 273 279 280 275 271
247 169 123 154 201 265 248 220 267 288 263 202 222 338 34 246 203 224 223 217 207 225 248 246 267 251 261 264 324 214 274 251 262 274 313 295 284 278 272 271 274 276 274 272 271 276 275 273 275
251 213 218 239 228 224 231 241 266 297 285 212 236 270 129 108 118 149 167 172 205 219 205 248 240 280 255 258 263 295 293 289 281 283 284 291 285 284 274 267 275 268 266 262 261 267 268 269 271
242 228 246 235 242 271 228 266 285 294 294 219 219 197 140 112 108 128 160 183 266 290 301 306 285 279 265 238 256 275 280 282 278 281 289 283 274 271 262 260 266 283 268 267 268 261 264 267 270
237 238 191 205 192 239 256 279 276 302 311 212 203 214 183 137 150 157 168 202 247 292 297 288 284 281 271 257 264 267 271 275 278 277 278 276 274 275 273 267 254 246 259 258 262 263 267 263 263
200 204 211 189 183 265 292 288 302 290 292 213 202 210 207 172 157 167 153 196 71 13 348 333 318 308 299 288 280 276 277 281 287 289 288 285 282 281 278 275 270 258 255 259 260 261 264 263 263
204 205 224 232 217 207 235 282 308 293 283 177 201 204 205 187 184 175 160 117 58 359 348 346 329 315 307 303 302 300 297 297 298 299 300 299 296 290 282 279 279 276 270 265 264 259 257 259 259
Height
3184 3184 3183 3183 3187 3184 3182 3184 3183 3183 3184 3183 3183 3183 3184 3184 3185 3189 3186 3187 3190 3193 3194 3196 3198 3199 3200 3201 3202 3203 3203 3204 3204 3205 3205 3205 3206 3206 3207 3207 3208 3208 3208 3207 3208 3209 3210 3210 3210
3187 3187 3187 3186 3187 3185 3185 3184 3185 3184 3184 3184 3183 3183 3183 3184 3185 3186 3187 3188 3191 3195 3196 3198 3199 3201 3202 3203 3204 3204 3205 3205 3206 3206 3206 3206 3206 3207 3208 3209 3210 3210 3210 3210 3210 3211 3212 3212 3213
3190 3189 3190 3188 3187 3187 3187 3186 3186 3185 3184 3184 3184 3183 3183 3183 3184 3186 3188 3190 3192 3196 3198 3200 3201 3202 3203 3205 3206 3206 3206 3206 3207 3207 3207 3207 3207 3208 3209 3210 3210 3211 3212 3212 3212 3213 3214 3214 3215
3191 3192 3192 3190 3189 3189 3189 3188 3188 3187 3186 3186 3185 3185 3184 3184 3185 3188 3190 3192 3194 3197 3199 3201 3203 3204 3205 3206 3207 3208 3208 3208 3208 3209 3208 3208 3208 3208 3209 3211 3212 3212 3213 3214 3214 3215 3216 3216 3216
3194 3193 3192 3190 3191 3190 3190 3190 3189 3188 3187 3187 3186 3186 3185 3185 3187 3191 3193 3194 3196 3199 3201 3203 3205 3206 3207 3208 3209 3209 3210 3210 3210 3210 3209 3209 3209 3209 3210 3211 3212 3213 3214 3214 3215 3216 3217 3219 3219
3196 3195 3194 3192 3192 3192 3192 3191 3190 3189 3188 3188 3187 3186 3187 3186 3189 3192 3194 3196 3197 3200 3203 3205 3206 3208 3208 3209 3209 3210 3210 3210 3210 3210 3210 3209 3209 3209 3210 3211 3212 3214 3214 3215 3215 3216 3217 3219 3220
3197 3197 3195 3194 3194 3193 3193 3192 3192 3190 3188 3188 3189 3188 3188 3188 3189 3193 3195 3196 3199 3201 3204 3206 3207 3208 3209 3210 3210 3210 3210 3210 3210 3210 3209 3209 3210 3210 3210 3211 3212 3214 3215 3215 3216 3217 3218 3218 3220
3198 3198 3197 3195 3195 3195 3195 3194 3192 3191 3189 3188 3188 3188 3190 3189 3190 3193 3196 3197 3200 3202 3205 3206 3208 3209 3209 3210 3210 3210 3211 3210 3210 3210 3209 3209 3210 3210 3210 3211 3212 3213 3215 3216 3216 3216 3217 3218 3219
3199 3199 3198 3197 3196 3197 3197 3196 3192 3190 3189 3188 3188 3189 3190 3191 3192 3194 3197 3199 3201 3204 3205 3207 3208 3209 3210 3210 3211 3211 3211 3211 3210 3209 3209 3208 3209 3210 3209 3210 3211 3212 3213 3214 3215 3216 3217 3217 3218
3199 3199 3199 3198 3198 3197 3197 3196 3194 3191 3188 3188 3188 3188 3191 3194 3195 3197 3199 3201 3203 3204 3206 3207 3209 3210 3210 3211 3211 3211 3211 3210 3210 3209 3208 3208 3209 3209 3209 3210 3211 3212 3212 3213 3213 3214 3215 3217 3217
3200 3200 3199 3199 3198 3199 3198 3197 3196 3193 3191 3188 3188 3190 3193 3195 3197 3199 3201 3203 3204 3205 3207 3208 3209 3210 3211 3211 3211 3211 3211 3210 3209 3208 3206 3208 3209 3210 3210 3210 3211 3212 3212 3213 3213 3213 3214 3215 3216
3201 3200 3200 3200 3200 3200 3200 3199 3198 3196 3194 3191 3190 3194 3196 3199 3200 3201 3203 3204 3205 3206 3207 3208 3209 3210 3211 3212 3211 3211 3211 3211 3210 3209 3208 3209 3210 3211 3211 3211 3212 3212 3212 3212 3212 3212 3213 3215 3216
3201 3201 3200 3201 3201 3201 3201 3201 3200 3199 3197 3195 3195 3197 3199 3201 3202 3203 3204 3205 3206 3207 3207 3208 3208 3209 3211 3212 3212 3212 3212 3213 3212 3210 3210 3211 3211 3211 3211 3211 3212 3212 3212 3212 3211 3212 3213 3214 3214
3202 3202 3201 3202 3203 3202 3203 3203 3203 3203 3201 3200 3200 3201 3202 3203 3204 3205 3206 3207 3207 3207 3207 3208 3209 3209 3211 3212 3212 3212 3213 3213 3213 3212 3210 3210 3211 3211 3211 3211 3213 3214 3213 3213 3212 3212 3213 3213 3214
3202 3203 3202 3203 3204 3204 3203 3204 3204 3204 3203 3202 3202 3203 3204 3205 3206 3207 3206 3207 3208 3208 3207 3207 3208 3210 3211 3212 3212 3213 3213 3214 3213 3214 3213 3212 3214 3213 3214 3211 3212 3214 3214 3212 3213 3213 3213 3214 3213
3203 3204 3204 3204 3205 3204 3204 3204 3203 3203 3203 3203 3204 3205 3205 3206 3206 3206 3206 3207 3208 3207 3206 3206 3208 3210 3212 3212 3212 3213 3213 3214 3214 3215 3215 3215 3216 3216 3216 3215 3214 3214 3214 3213 3214 3213 3213 3214 3214
3203 3204 3204 3205 3204 3204 3205 3203 3203 3202 3203 3204 3205 3205 3205 3205 3206 3205 3205 3206 3207 3208 3207 3207 3209 3210 3212 3213 3213 3213 3213 3214 3215 3215 3216 3216 3216 3217 3217 3217 3217 3216 3216 3214 3214 3214 3214 3213 3213
3203 3204 3203 3203 3203 3203 3203 3202 3202 3201 3202 3201 3201 3201 3201 3203 3202 3204 3204 3204 3206 3208 3208 3208 3209 3209 3211 3212 3213 3214 3214 3214 3215 3216 3216 3216 3216 3216 3217 3217 3217 3216 3216 3215 3214 3215 3215 3213 3212
3202 3202 3200 3200 3200 3202 3202 3201 3201 3200 3201 3199 3198 3197 3198 3200 3200 3202 3203 3203 3205 3206 3209 3209 3209 3210 3211 3212 3212 3213 3214 3214 3215 3215 3215 3215 3215 3216 3215 3215 3215 3215 3214 3214 3213 3213 3213 3212 3211
3201 3200 3199 3198 3199 3201 3200 3199 3199 3198 3198 3196 3196 3195 3196 3197 3197 3200 3203 3203 3204 3206 3207 3208 3210 3210 3210 3210 3210 3212 3213 3214 3214 3215 3215 3214 3214 3214 3214 3214 3214 3213 3212 3212 3212 3212 3211 3210 3210
3201 3199 3198 3198 3198 3199 3199 3198 3197 3196 3196 3195 3194 3194 3195 3195 3196 3197 3201 3202 3203 3205 3206 3208 3211 3211 3210 3209 3211 3211 3211 3212 3213 3212 3211 3212 3212 3213 3213 3213 3212 3211 3211 3209 3210 3209 3208 3208 3208
3199 3197 3196 3196 3198 3200 3199 3198 3194 3193 3193 3193 3193 3192 3193 3194 3196 3195 3199 3201 3203 3205 3206 3207 3209 3210 3209 3209 3210 3211 3212 3211 3210 3211 3210 3209 3210 3210 3210 3209 3209 3209 3208 3208 3207 3206 3206 3206 3206
3198 3196 3195 3195 3197 3198 3198 3200 3192 3190 3190 3192 3191 3191 3192 3193 3192 3193 3197 3201 3201 3204 3205 3208 3208 3208 3207 3206 3207 3208 3209 3210 3209 3209 3209 3208 3208 3207 3207 3206 3205 3204 3204 3205 3205 3204 3203 3204 3204
3195 3194 3195 3196 3198 3199 3196 3199 3191 3189 3188 3189 3189 3190 3190 3191 3192 3193 3196 3199 3200 3202 3204 3207 3207 3207 3207 3206 3204 3202 3205 3205 3205 3205 3206 3206 3205 3204 3203 3202 3202 3201 3200 3200 3199 3199 3199 3199 3200
3193 3193 3196 3198 3199 3196 3194 3196 3189 3188 3187 3186 3186 3188 3188 3188 3189 3193 3196 3198 3199 3201 3202 3204 3205 3204 3204 3204 3202 3201 3201 3200 3200 3202 3202 3203 3203 3203 3202 3200 3199 3199 3197 3196 3195 3194 3194 3195 3195
3190 3192 3192 3193 3192 3193 3193 3192 3186 3185 3184 3186 3185 3188 3189 3189 3190 3193 3195 3196 3198 3199 3201 3201 3201 3202 3201 3200 3200 3199 3197 3197 3198 3199 3197 3197 3197 3197 3196 3195 3194 3193 3193 3190 3191 3190 3190 3189 3189
3187 3188 3189 3190 3191 3192 3190 3187 3185 3183 3183 3183 3185 3187 3189 3189 3191 3194 3194 3195 3196 3197 3199 3199 3198 3199 3199 3198 3197 3196 3194 3194 3195 3194 3194 3193 3193 3193 3191 3189 3188 3187 3188 3186 3185 3185 3185 3184 3184
3183 3185 3188 3188 3189 3189 3187 3184 3182 3181 3181 3182 3183 3185 3188 3189 3191 3191 3192 3193 3195 3195 3195 3195 3195 3194 3195 3196 3196 3195 3194 3192 3192 3191 3190 3189 3186 3184 3183 3183 3183 3182 3181 3180 3179 3178 3178 3177 3177
3180 3182 3184 3185 3186 3185 3184 3182 3179 3179 3179 3180 3183 3184 3185 3186 3188 3189 3190 3191 3191 3192 3192 3192 3191 3190 3190 3190 3190 3189 3188 3187 3185 3183 3182 3181 3179 3177 3175 3175 3175 3175 3175 3173 3173 3172 3171 3170 3171
3177 3179 3181 3183 3183 3183 3183 3181 3177 3177 3177 3177 3181 3182 3184 3185 3187 3187 3188 3189 3190 3190 3190 3190 3189 3187 3186 3184 3183 3182 3181 3180 3178 3176 3174 3173 3171 3169 3168 3166 3165 3165 3166 3166 3165 3164 3164 3163 3163